Location: Marysville Observatory
(48.1092°N, 122.1645°W)
Time: 10:00:17
(UTC-07:00)

Daily predictions for brighter satellites

Satellite Brightness Start Highest point End
(mag) Time Altitude Azimuth Time Altitude Azimuth Time Altitude Azimuth
Cosmos 909 Rocket 4.5 21:20:29 10° S 21:26:50 53° ESE 21:34:31 10° NE
Cosmos 2278 Rocket 3.7 21:27:34 10° SE 21:31:02 17° E 21:34:29 10° ENE
Gbstr 26 Del rocket 4.0 21:26:09 10° W 21:31:54 62° NNW 21:36:32 10° ENE
Cosmos 1825 3.8 21:30:21 10° SE 21:33:06 19° E 21:35:51 10° NE
Cosmos 1674 Rocket 3.7 21:28:47 10° N 21:33:16 67° ENE 21:37:41 10° SSE
Cosmos 676 Rocket 4.4 21:30:52 10° NNW 21:35:55 49° ENE 21:40:57 10° SE
Cosmos 1340 Rocket 3.2 21:32:09 10° SSW 21:36:07 70° WNW 21:40:11 10° N
USA 234 4.3 21:32:31 10° ENE 21:37:08 20° ESE 21:41:44 10° SSE
Cosmos 1782 2.8 21:35:01 10° N 21:39:03 75° E 21:43:04 10° SSE
Cosmos 1939 Rocket 3.1 21:35:41 10° S 21:39:32 67° WSW 21:43:27 10° NNW
Meteor 2-3 Rocket 4.1 21:33:56 10° SSW 21:39:32 70° WNW 21:45:09 10° N
Cosmos 1461 3.2 21:36:08 10° SW 21:40:49 90° NW 21:45:21 10° NE
Cosmos 2056 Rocket 3.6 21:36:25 10° S 21:41:28 57° ESE 21:46:30 10° NNE
Meteor 1-27 Rocket 3.9 21:37:26 10° N 21:43:00 59° ENE 21:48:28 10° SSE
Cosmos 1371 Rocket 4.0 21:38:08 10° SSW 21:43:27 79° ESE 21:48:45 10° NNE
Cosmos 1844 Rocket 3.1 21:38:44 10° S 21:43:58 40° ESE 21:49:13 10° NE
Cosmos 1174 3.9 21:40:39 10° NNW 21:44:04 46° NE 21:46:59 11° ESE
COSMOS 2487 3.9 21:41:31 10° N 21:44:40 27° ENE 21:47:48 10° ESE
Cosmos 2082 Rocket 3.8 21:41:13 10° N 21:45:51 24° NE 21:50:25 10° E
SL-27 R/B 2.6 21:42:21 10° NNW 21:46:03 86° WSW 21:49:41 10° SSE
Coronas F rocket 1.9 21:46:22 10° SSW 21:48:58 57° W 21:51:37 10° N
YAOGAN 6 2.6 21:49:21 10° SSE 21:52:49 63° ENE 21:56:19 10° N
COS B Rocket 3.5 21:48:58 10° N 21:53:17 63° E 21:57:16 10° S
Cosmos 1408 3.6 21:50:07 10° SSE 21:53:21 29° E 21:56:34 10° NNE
Cosmos 2263 Rocket 3.6 21:53:29 10° SW 21:58:53 44° NW 22:04:17 10° NNE
SL-8 R/B 4.1 21:55:04 10° SW 21:59:34 40° SSE 22:04:04 10° E
Cosmos 1606 2.7 21:56:36 10° N 22:00:34 79° E 22:04:29 10° SSE
deb Chang Zheng 4 3.8 21:56:27 10° NNE 22:00:52 75° WNW 22:05:16 10° SSW
Cosmos 1975 Rocket 3.6 21:56:48 10° N 22:00:58 43° ENE 22:04:34 13° SE
MetOp-A 4.2 21:58:35 10° SSE 22:03:56 83° WSW 22:09:20 10° NNW
Okean 3 3.6 22:02:49 10° N 22:07:06 59° ENE 22:10:48 13° SSE
SL-08 RB Rocket 4.0 22:03:06 12° SE 22:07:10 54° ENE 22:11:42 10° N
CENTAUR R/B 3.9 22:01:51 10° NW 22:09:08 44° WSW 22:16:49 10° S
Cosmos 1242 Rocket 3.4 22:05:51 10° N 22:09:13 35° ENE 22:11:41 16° SE
Cosmos 2154 Rocket 4.0 22:05:18 10° S 22:11:29 74° E 22:17:42 10° NNE
Cosmos 1892 4.3 22:08:03 10° SW 22:11:38 38° WNW 22:15:16 10° N
Cosmos 1908 Rocket 3.5 22:09:30 10° S 22:13:52 76° E 22:18:19 10° NNE
USA 245 2.9 22:13:16 14° SSE 22:15:47 89° WSW 22:19:36 10° NNW
NOAA 11 4.2 22:10:39 12° SSE 22:15:49 77° ENE 22:21:21 10° NNW
CZ-4 SHROUD 4.0 22:13:39 10° S 22:16:39 48° W 22:19:42 10° NNW
Cosmos 1378 Rocket 3.5 22:13:53 10° N 22:18:13 84° W 22:22:16 12° S
Cosmos 1733 Rocket 4.2 22:15:44 10° SSW 22:19:58 45° WNW 22:24:13 10° N
ERBS 4.3 22:18:29 10° W 22:21:08 20° SW 22:23:30 11° S
NOSS 2-2 (D) 3.6 22:17:00 10° SW 22:21:13 90° SE 22:26:20 10° NE
Envisat 4.3 22:16:45 10° SSW 22:21:26 37° W 22:26:08 10° NNW
H-2A R/B 2.6 22:17:20 15° SE 22:21:37 49° ENE 22:26:44 10° N
NOSS 2-2 (C) 4.0 22:31:43 10° SW 22:35:56 71° NW 22:41:05 10° NE
SPOT 1/Viking Rocket 3.9 22:31:45 12° S 22:36:36 63° WSW 22:41:49 10° NNW
Cosmos 1238 Rocket 3.0 22:34:58 10° NNW 22:37:55 48° W 22:40:28 15° SSW
Cosmos 489 Rocket 4.5 22:32:35 10° NNW 22:38:51 88° WSW 22:43:34 18° SSE
Landsat 7 3.8 22:39:28 19° SSE 22:42:51 84° ENE 22:47:39 10° NNW
H-2A R/B 4.4 22:41:16 10° SW 22:44:19 19° W 22:47:20 10° NW
Cosmos 1452 Rocket 3.5 22:39:29 10° SSW 22:44:46 86° ESE 22:50:05 10° NNE
Cosmos 2366 rocket 4.4 22:40:48 18° SSE 22:45:11 48° E 22:51:14 10° NNE
Meteor 1-14 Rocket 4.4 22:42:37 18° SSE 22:46:47 53° E 22:52:13 10° NNE
Cosmos 2084 3.6 22:45:10 20° S 22:47:21 38° ESE 22:50:55 10° NE
Cosmos 1862 4.1 22:45:39 10° SSW 22:49:38 52° WNW 22:53:39 10° N
ASTEX 1 4.4 22:45:30 10° NNE 22:49:51 30° E 22:51:57 22° SE
Cosmos 614 Rocket 3.9 22:48:07 10° NNW 22:53:16 76° ENE 22:56:16 25° SSE
Cosmos 1140 Rocket 3.6 22:49:12 10° NNW 22:54:20 73° WSW 22:57:38 22° S
Spot 4 4.0 22:52:37 24° SE 22:55:27 62° ENE 23:00:16 10° N
Terra 1.8 22:55:45 24° SSE 22:58:37 84° ENE 23:03:24 10° NNW
NOSS 5 (C) 4.2 22:58:27 28° SSW 22:59:50 54° SE 23:02:55 10° NE
DELTA 2 DEB (DPAF) 4.4 22:58:19 22° S 23:01:11 66° WSW 23:05:39 10° NNW
Okean 2 Rocket 3.3 22:57:26 13° SSW 23:01:19 71° WNW 23:05:44 10° N
DMSP B5D2-2 4.2 22:56:35 10° NNE 23:01:45 58° E 23:04:56 23° S
ATLAS 5 CENTAUR R/B 4.3 23:00:48 10° WNW 23:05:01 20° WSW 23:09:24 10° SSW
ARGOS 4.1 23:01:36 13° SSW 23:06:09 42° W 23:11:14 10° NNW
Cosmos 2218 Rocket 4.0 23:02:10 17° S 23:07:11 78° E 23:13:37 10° NNE
CZ-4C R/B 3.8 23:06:05 24° SSW 23:08:10 53° W 23:12:09 10° NNW
Cosmos 1825 3.7 23:04:57 10° SW 23:08:29 35° WNW 23:12:03 10° N
CZ-4B R/B 4.2 23:03:50 10° N 23:08:44 52° WNW 23:13:28 10° SW
Cosmos 1184 Rocket 4.3 23:10:45 12° SW 23:13:33 36° WNW 23:16:42 10° N
Cosmos 1812 3.1 23:10:15 10° N 23:14:04 51° ENE 23:15:14 36° SE
Intercosmos 25 3.8 23:11:19 15° SSW 23:14:08 48° WNW 23:17:14 10° N
Cosmos 2278 Rocket 2.2 23:08:39 10° SSW 23:14:20 85° WNW 23:20:04 10° NNE
Cosmos 1850 Rocket 4.2 23:09:47 10° NNW 23:15:03 66° WSW 23:18:00 26° S
Cosmos 1844 4.3 23:11:16 10° SW 23:16:57 59° WNW 23:22:43 10° NNE
Cosmos 1833 Rocket 2.7 23:12:06 10° NNW 23:17:44 74° ENE 23:20:41 29° SE
Gbstr 26 Del rocket 3.5 23:14:17 10° WNW 23:19:21 61° N 23:22:48 15° E
COSMOS 2487 4.3 23:17:13 10° NW 23:20:13 24° WSW 23:21:53 18° SW
USA 234 3.2 23:14:26 10° ENE 23:20:58 68° SE 23:27:28 10° SW
Cosmos 1727 Rocket 3.9 23:15:01 10° N 23:21:14 88° W 23:24:55 26° S
Cosmos 1844 Rocket 4.1 23:22:37 10° WSW 23:27:54 39° NW 23:33:11 10° NNE
Cosmos 2082 Rocket 2.2 23:24:50 10° NNW 23:30:34 75° WSW 23:33:18 32° SSE
Timation 2 Rocket 4.5 23:26:22 10° NW 23:32:07 47° WSW 23:35:17 25° S
IGS 5A 4.2 23:30:58 28° SSW 23:32:48 47° W 23:36:51 10° NNW
NOSS 1 (D) 4.4 23:30:31 10° NW 23:33:40 89° SW 23:33:51 78° SE
SL-8 R/B 3.6 23:37:03 10° WSW 23:41:53 87° S 23:46:43 10° E
Cosmos 2297 3.7 23:40:40 20° SSW 23:44:46 88° ESE 23:50:33 10° NNE
APEX 3.6 23:43:51 27° SW 23:46:04 79° WNW 23:51:18 10° NNE
CZ-4B R/B 3.3 23:46:12 17° ENE 23:46:27 17° ENE 23:48:37 10° NNE
Okean 1 3.3 23:45:05 10° NNW 23:49:10 76° W 23:50:10 49° S
Cosmos 1536 Rocket 4.5 23:47:16 10° NNW 23:51:30 42° W 23:53:22 28° SW
